Location: Auckland
(36.8670°S, 174.7670°E)
Time: 08:31:29
(UTC+13:00)

Cosmos 1356 - Pass Details

Date: 24 January 2019
Orbit: 448 x 452 km, 81.1° (Epoch: 19 February)

Event Time Altitude Azimuth Distance (km) Brightness Sun altitude
Exits shadow 22:12:20 28° 98° (E) 882 4.5 -16.6°
Drops below altitude 10° 22:15:06 10° 148° (SSE) 1,609 6.3 -17.1°
Sets 22:17:21 0° 159° (SSE) 2,492 7.5 -17.4°
